Regional Weather Roundup
Issued by NWS Cleveland, OH

Home | Current Version | Previous Version | Graphics & Text | Print | Product List | Glossary On
Versions: 1 2 3 4 5 6 7 8 9 10 11 12 13 14 15 16 17 18 19 20 21 22 23 24 25 26 27 28 29 30 31 32 33 34 35 36 37 38 39 40 41 42 43 44 45 46 47 48 49 50
102
ASUS41 KCLE 281200
RWRCLE
OHIO REGIONAL WEATHER ROUNDUP
NATIONAL WEATHER SERVICE WILMINGTON, OH
800 AM EDT SUN AUG 28 2016

NOTE: "FAIR" INDICATES FEW OR NO CLOUDS BELOW 12,000 FEET WITH NO
SIGNIFICANT WEATHER AND/OR OBSTRUCTIONS TO VISIBILITY.

OHZ001>008-015>018-024>027-034-035-043-044-281300-
   NORTHWEST OHIO

CITY           SKY/WX    TMP DP  RH WIND       PRES   REMARKS
DEFIANCE       FAIR      71  69  93 CALM      30.19R FOG
FINDLAY        FAIR      70  66  87 CALM      30.19R
TOLEDO EXPRESS FOG       68  68 100 CALM      30.18R VSB 3/4
TOLEDO EXEC    FAIR      71  71 100 CALM      30.19S FOG
LIMA           FAIR      69  69 100 CALM      30.20S
$$

OHZ009>014-019>023-028>033-038-089-281300-
   NORTHEAST OHIO

CITY           SKY/WX    TMP DP  RH WIND       PRES   REMARKS
CLE-HOPKINS    PTSUNNY   73  67  81 SW3       30.22R
CLE-LAKEFRONT  FAIR      73  69  87 S3        30.18R
CUY CO. ARPT   MOSUNNY   72  72 100 CALM      30.21R
LORAIN-ELYRIA  FAIR      68  66  93 S5        30.21R
ASHTABULA      FAIR      69  69 100 CALM      30.21S
AKRON-CANTON   PTSUNNY   73  66  78 N5        30.22R
WOOSTER        NOT AVBL
MANSFIELD      FAIR      72  66  81 W5        30.22R
YOUNGSTOWN     PTSUNNY   72  68  87 CALM      30.22R
$$

OHZ042-051>053-060>062-070>072-077>081-281300-
  SOUTHWEST OHIO

CITY           SKY/WX    TMP DP  RH WIND       PRES   REMARKS
CINC-COVINGTON FAIR      73  73 100 CALM      30.19R FOG
CINC-LUNKEN    NOT AVBL
HAMILTON       FAIR      70  69  97 W3        30.20R
DAYTON         NOT AVBL
WRIGHT-PAT AFB MOSUNNY   70  70 100 N1        30.20R
DAYTON GENERAL FAIR      71  68  90 NE3       30.20R
WILMINGTON     FAIR      69  68  96 NE3       30.20R
$$

OHZ036-037-039>041-045>050-054>059-063>069-073>076-082>088-281300-
  CENTRAL AND SOUTHEAST OHIO

CITY           SKY/WX    TMP DP  RH WIND       PRES   REMARKS
COLUMBUS       PTSUNNY   69  68  96 CALM      30.19R
OSU AIRPORT    FAIR      71  70  96 CALM      30.21R
BOLTON FIELD   SUNNY     70  70 100 CALM      30.21R
RICKENBACK AFB NOT AVBL
NEWARK         FAIR      67  66  97 CALM      30.21R
MARION         FAIR      68  66  93 CALM      30.22R FOG
LANCASTER      FAIR      69  68  96 CALM      30.21R
ZANESVILLE     FAIR      70  68  93 CALM      30.21R
NEW PHILLY     FAIR      72  68  87 CALM      30.22R FOG
$$




USA.gov is the U.S. government's official web portal to all federal, state and local government web resources and services.